owner,sensor,date,latitude,longitude,vertical_datum,sea_water_practical_salinity,qcFlag 
NERRS,ioos:station:NOAA.NERRS:marscwq:1,2014-06-01T00:30:00Z,27.8383,-97.0503,5.1,32.1,1111122 
NERRS,ioos:station:NOAA.NERRS:marscwq:1,2014-06-01T03:30:00Z,27.8383,-97.0503,5.01,32.1,1111122 
NERRS,ioos:station:NOAA.NERRS:marscwq:1,2014-06-01T04:30:00Z,27.8383,-97.0503,5.06,32.2,1111122 
NERRS,ioos:station:NOAA.NERRS:marscwq:1,2014-06-01T05:30:00Z,27.8383,-97.0503,5.05,32.3,1111122 
NERRS,ioos:station:NOAA.NERRS:marscwq:1,2014-06-01T07:00:00Z,27.8383,-97.0503,5.1,32.4,1111122 
NERRS,ioos:station:NOAA.NERRS:marscwq:1,2014-06-01T07:30:00Z,27.8383,-97.0503,5.17,32.5,1111122 
NERRS,ioos:station:NOAA.NERRS:marscwq:1,2014-06-01T08:30:00Z,27.8383,-97.0503,5.28,32.5,1111122 
NERRS,ioos:station:NOAA.NERRS:marscwq:1,2014-06-01T09:30:00Z,27.8383,-97.0503,5.31,32.6,1111122 
NERRS,ioos:station:NOAA.NERRS:marscwq:1,2014-06-01T11:30:00Z,27.8383,-97.0503,5.41,32.1,1111122 
NERRS,ioos:station:NOAA.NERRS:marscwq:1,2014-06-01T12:30:00Z,27.8383,-97.0503,5.46,32.3,1111122 
NERRS,ioos:station:NOAA.NERRS:marscwq:1,2014-06-01T13:30:00Z,27.8383,-97.0503,5.43,32.1,1111122 
NERRS,ioos:station:NOAA.NERRS:marscwq:1,2014-06-01T14:30:00Z,27.8383,-97.0503,5.45,32.1,1111122 
NERRS,ioos:station:NOAA.NERRS:marscwq:1,2014-06-01T15:30:00Z,27.8383,-97.0503,5.42,32.1,1111122 
NERRS,ioos:station:NOAA.NERRS:marscwq:1,2014-06-01T16:30:00Z,27.8383,-97.0503,5.47,32.0,1111122 
NERRS,ioos:station:NOAA.NERRS:marscwq:1,2014-06-01T17:30:00Z,27.8383,-97.0503,5.45,32.0,1111122 
NERRS,ioos:station:NOAA.NERRS:marscwq:1,2014-06-01T19:30:00Z,27.8383,-97.0503,5.42,32.1,1111122 
NERRS,ioos:station:NOAA.NERRS:marscwq:1,2014-06-01T20:30:00Z,27.8383,-97.0503,5.41,32.0,1111122 
NERRS,ioos:station:NOAA.NERRS:marscwq:1,2014-06-01T21:30:00Z,27.8383,-97.0503,5.4,32.1,1111122 
NERRS,ioos:station:NOAA.NERRS:marscwq:1,2014-06-01T22:30:00Z,27.8383,-97.0503,5.38,32.0,1111122 
NERRS,ioos:station:NOAA.NERRS:marscwq:1,2014-06-01T23:30:00Z,27.8383,-97.0503,5.36,32.0,1111122 
NERRS,ioos:station:NOAA.NERRS:marscwq:1,2014-06-02T01:30:00Z,27.8383,-97.0503,5.3,32.1,1111122 
NERRS,ioos:station:NOAA.NERRS:marscwq:1,2014-06-02T02:30:00Z,27.8383,-97.0503,5.22,32.1,1111122 
NERRS,ioos:station:NOAA.NERRS:marscwq:1,2014-06-02T04:30:00Z,27.8383,-97.0503,5.09,32.1,1111122 
NERRS,ioos:station:NOAA.NERRS:marscwq:1,2014-06-02T05:30:00Z,27.8383,-97.0503,5.14,32.1,1111122 
NERRS,ioos:station:NOAA.NERRS:marscwq:1,2014-06-02T07:30:00Z,27.8383,-97.0503,5.28,32.2,1111122 
NERRS,ioos:station:NOAA.NERRS:marscwq:1,2014-06-02T09:30:00Z,27.8383,-97.0503,5.35,32.4,1111122 
NERRS,ioos:station:NOAA.NERRS:marscwq:1,2014-06-02T10:30:00Z,27.8383,-97.0503,5.41,32.6,1111122 
NERRS,ioos:station:NOAA.NERRS:marscwq:1,2014-06-02T11:30:00Z,27.8383,-97.0503,5.46,32.3,1111122 
NERRS,ioos:station:NOAA.NERRS:marscwq:1,2014-06-02T12:30:00Z,27.8383,-97.0503,5.46,32.1,1111122 
NERRS,ioos:station:NOAA.NERRS:marscwq:1,2014-06-02T13:30:00Z,27.8383,-97.0503,5.46,32.1,1111122 
NERRS,ioos:station:NOAA.NERRS:marscwq:1,2014-06-02T14:30:00Z,27.8383,-97.0503,5.53,32.1,1111122 
NERRS,ioos:station:NOAA.NERRS:marscwq:1,2014-06-02T15:30:00Z,27.8383,-97.0503,5.53,32.1,1111122 
NERRS,ioos:station:NOAA.NERRS:marscwq:1,2014-06-02T16:30:00Z,27.8383,-97.0503,5.49,32.1,1111122 
NERRS,ioos:station:NOAA.NERRS:marscwq:1,2014-06-02T17:30:00Z,27.8383,-97.0503,5.48,32.1,1111122 
NERRS,ioos:station:NOAA.NERRS:marscwq:1,2014-06-02T18:30:00Z,27.8383,-97.0503,1.17,32.2,1111122 
NERRS,ioos:station:NOAA.NERRS:marscwq:1,2014-06-02T19:30:00Z,27.8383,-97.0503,5.43,33.1,1111122 
NERRS,ioos:station:NOAA.NERRS:marscwq:1,2014-06-02T20:30:00Z,27.8383,-97.0503,5.41,33.0,1111122 
NERRS,ioos:station:NOAA.NERRS:marscwq:1,2014-06-02T22:30:00Z,27.8383,-97.0503,5.4,32.9,1111122 
NERRS,ioos:station:NOAA.NERRS:marscwq:1,2014-06-02T23:30:00Z,27.8383,-97.0503,5.38,32.9,1111122 
NERRS,ioos:station:NOAA.NERRS:marscwq:1,2014-06-03T00:30:00Z,27.8383,-97.0503,5.36,32.9,1111122 
NERRS,ioos:station:NOAA.NERRS:marscwq:1,2014-06-03T03:30:00Z,27.8383,-97.0503,5.24,33.0,1111122 
NERRS,ioos:station:NOAA.NERRS:marscwq:1,2014-06-03T04:30:00Z,27.8383,-97.0503,5.18,33.0,1111122 
NERRS,ioos:station:NOAA.NERRS:marscwq:1,2014-06-03T05:30:00Z,27.8383,-97.0503,5.21,33.0,1111122 
NERRS,ioos:station:NOAA.NERRS:marscwq:1,2014-06-03T07:00:00Z,27.8383,-97.0503,5.27,33.3,1111122 
NERRS,ioos:station:NOAA.NERRS:marscwq:1,2014-06-03T08:30:00Z,27.8383,-97.0503,5.28,33.3,1111122 
NERRS,ioos:station:NOAA.NERRS:marscwq:1,2014-06-03T11:30:00Z,27.8383,-97.0503,5.41,33.5,1111122 
NERRS,ioos:station:NOAA.NERRS:marscwq:1,2014-06-03T13:30:00Z,27.8383,-97.0503,5.48,32.8,1111122 
NERRS,ioos:station:NOAA.NERRS:marscwq:1,2014-06-03T14:30:00Z,27.8383,-97.0503,5.51,32.8,1111122 
NERRS,ioos:station:NOAA.NERRS:marscwq:1,2014-06-03T17:30:00Z,27.8383,-97.0503,5.48,32.6,1111122 
NERRS,ioos:station:NOAA.NERRS:marscwq:1,2014-06-03T18:30:00Z,27.8383,-97.0503,5.47,32.6,1111122 
NERRS,ioos:station:NOAA.NERRS:marscwq:1,2014-06-03T19:30:00Z,27.8383,-97.0503,5.43,32.6,1111122 
NERRS,ioos:station:NOAA.NERRS:marscwq:1,2014-06-03T20:30:00Z,27.8383,-97.0503,5.43,32.6,1111122 
NERRS,ioos:station:NOAA.NERRS:marscwq:1,2014-06-03T21:30:00Z,27.8383,-97.0503,5.38,32.6,1111122 
NERRS,ioos:station:NOAA.NERRS:marscwq:1,2014-06-03T22:30:00Z,27.8383,-97.0503,5.4,32.6,1111122 
NERRS,ioos:station:NOAA.NERRS:marscwq:1,2014-06-03T23:30:00Z,27.8383,-97.0503,5.39,32.6,1111122 
NERRS,ioos:station:NOAA.NERRS:marscwq:1,2014-06-04T00:30:00Z,27.8383,-97.0503,5.4,32.6,1111122 
NERRS,ioos:station:NOAA.NERRS:marscwq:1,2014-06-04T01:30:00Z,27.8383,-97.0503,5.35,32.6,1111122 
NERRS,ioos:station:NOAA.NERRS:marscwq:1,2014-06-04T02:30:00Z,27.8383,-97.0503,5.31,32.6,1111122 
NERRS,ioos:station:NOAA.NERRS:marscwq:1,2014-06-04T03:30:00Z,27.8383,-97.0503,5.25,32.6,1111122 
NERRS,ioos:station:NOAA.NERRS:marscwq:1,2014-06-04T04:30:00Z,27.8383,-97.0503,5.26,32.6,1111122 
NERRS,ioos:station:NOAA.NERRS:marscwq:1,2014-06-04T06:30:00Z,27.8383,-97.0503,5.09,33.0,1111122 
NERRS,ioos:station:NOAA.NERRS:marscwq:1,2014-06-04T07:30:00Z,27.8383,-97.0503,5.23,33.1,1111122 
NERRS,ioos:station:NOAA.NERRS:marscwq:1,2014-06-04T08:30:00Z,27.8383,-97.0503,5.24,33.2,1111122 
NERRS,ioos:station:NOAA.NERRS:marscwq:1,2014-06-04T09:30:00Z,27.8383,-97.0503,5.28,33.3,1111122 
NERRS,ioos:station:NOAA.NERRS:marscwq:1,2014-06-04T10:30:00Z,27.8383,-97.0503,5.37,33.4,1111122 
NERRS,ioos:station:NOAA.NERRS:marscwq:1,2014-06-04T11:30:00Z,27.8383,-97.0503,5.41,33.6,1111122 
NERRS,ioos:station:NOAA.NERRS:marscwq:1,2014-06-04T12:30:00Z,27.8383,-97.0503,5.41,33.4,1111122 
NERRS,ioos:station:NOAA.NERRS:marscwq:1,2014-06-04T13:30:00Z,27.8383,-97.0503,5.4,32.9,1111122 
NERRS,ioos:station:NOAA.NERRS:marscwq:1,2014-06-04T15:30:00Z,27.8383,-97.0503,5.45,32.6,1111122 
NERRS,ioos:station:NOAA.NERRS:marscwq:1,2014-06-04T18:30:00Z,27.8383,-97.0503,5.4,32.5,1111122 
NERRS,ioos:station:NOAA.NERRS:marscwq:1,2014-06-04T19:30:00Z,27.8383,-97.0503,5.37,32.5,1111122 
NERRS,ioos:station:NOAA.NERRS:marscwq:1,2014-06-04T21:30:00Z,27.8383,-97.0503,5.33,32.5,1111122 
NERRS,ioos:station:NOAA.NERRS:marscwq:1,2014-06-04T22:30:00Z,27.8383,-97.0503,5.32,32.5,1111122 
NERRS,ioos:station:NOAA.NERRS:marscwq:1,2014-06-04T23:30:00Z,27.8383,-97.0503,5.33,32.5,1111122 
NERRS,ioos:station:NOAA.NERRS:marscwq:1,2014-06-05T00:30:00Z,27.8383,-97.0503,5.32,32.6,1111122 
NERRS,ioos:station:NOAA.NERRS:marscwq:1,2014-06-05T02:30:00Z,27.8383,-97.0503,5.3,32.6,1111122 
NERRS,ioos:station:NOAA.NERRS:marscwq:1,2014-06-05T04:30:00Z,27.8383,-97.0503,5.3,32.7,1111122 
NERRS,ioos:station:NOAA.NERRS:marscwq:1,2014-06-05T07:00:00Z,27.8383,-97.0503,5.24,33.2,1111122 
NERRS,ioos:station:NOAA.NERRS:marscwq:1,2014-06-05T07:30:00Z,27.8383,-97.0503,5.23,33.2,1111122 
NERRS,ioos:station:NOAA.NERRS:marscwq:1,2014-06-05T08:30:00Z,27.8383,-97.0503,5.24,33.4,1111122 
NERRS,ioos:station:NOAA.NERRS:marscwq:1,2014-06-05T09:30:00Z,27.8383,-97.0503,5.27,33.5,1111122 
NERRS,ioos:station:NOAA.NERRS:marscwq:1,2014-06-05T10:30:00Z,27.8383,-97.0503,5.33,33.7,1111122 
NERRS,ioos:station:NOAA.NERRS:marscwq:1,2014-06-05T11:30:00Z,27.8383,-97.0503,5.32,33.8,1111122 
NERRS,ioos:station:NOAA.NERRS:marscwq:1,2014-06-05T12:30:00Z,27.8383,-97.0503,5.35,31.7,1111122 
NERRS,ioos:station:NOAA.NERRS:marscwq:1,2014-06-05T13:30:00Z,27.8383,-97.0503,5.44,30.6,1111122 
NERRS,ioos:station:NOAA.NERRS:marscwq:1,2014-06-05T14:30:00Z,27.8383,-97.0503,5.44,30.1,1111122 
NERRS,ioos:station:NOAA.NERRS:marscwq:1,2014-06-05T15:30:00Z,27.8383,-97.0503,5.43,30.3,1111122 
NERRS,ioos:station:NOAA.NERRS:marscwq:1,2014-06-05T16:30:00Z,27.8383,-97.0503,5.39,30.3,1111122 
NERRS,ioos:station:NOAA.NERRS:marscwq:1,2014-06-05T17:30:00Z,27.8383,-97.0503,5.39,30.4,1111122 
NERRS,ioos:station:NOAA.NERRS:marscwq:1,2014-06-05T18:30:00Z,27.8383,-97.0503,5.38,30.4,1111122 
NERRS,ioos:station:NOAA.NERRS:marscwq:1,2014-06-05T20:30:00Z,27.8383,-97.0503,5.32,30.5,1111122 
NERRS,ioos:station:NOAA.NERRS:marscwq:1,2014-06-05T21:30:00Z,27.8383,-97.0503,5.26,30.7,1111122 
NERRS,ioos:station:NOAA.NERRS:marscwq:1,2014-06-05T22:30:00Z,27.8383,-97.0503,5.25,30.6,1111122 
NERRS,ioos:station:NOAA.NERRS:marscwq:1,2014-06-05T23:30:00Z,27.8383,-97.0503,5.33,30.5,1111122 
NERRS,ioos:station:NOAA.NERRS:marscwq:1,2014-06-06T01:30:00Z,27.8383,-97.0503,5.29,30.6,1111122 
NERRS,ioos:station:NOAA.NERRS:marscwq:1,2014-06-06T02:30:00Z,27.8383,-97.0503,5.3,30.7,1111122 
NERRS,ioos:station:NOAA.NERRS:marscwq:1,2014-06-06T07:00:00Z,27.8383,-97.0503,5.26,31.5,1111122 
NERRS,ioos:station:NOAA.NERRS:marscwq:1,2014-06-06T07:30:00Z,27.8383,-97.0503,5.27,31.6,1111122 
NERRS,ioos:station:NOAA.NERRS:marscwq:1,2014-06-06T08:30:00Z,27.8383,-97.0503,5.28,32.0,1111122 
NERRS,ioos:station:NOAA.NERRS:marscwq:1,2014-06-06T09:30:00Z,27.8383,-97.0503,5.27,32.0,1111122 
NERRS,ioos:station:NOAA.NERRS:marscwq:1,2014-06-06T10:30:00Z,27.8383,-97.0503,5.31,32.3,1111122 
NERRS,ioos:station:NOAA.NERRS:marscwq:1,2014-06-06T11:30:00Z,27.8383,-97.0503,5.33,32.4,1111122 
NERRS,ioos:station:NOAA.NERRS:marscwq:1,2014-06-06T12:30:00Z,27.8383,-97.0503,5.34,32.8,1111122 
NERRS,ioos:station:NOAA.NERRS:marscwq:1,2014-06-06T13:30:00Z,27.8383,-97.0503,5.39,31.8,1111122 
NERRS,ioos:station:NOAA.NERRS:marscwq:1,2014-06-06T15:30:00Z,27.8383,-97.0503,5.4,31.8,1111122 
NERRS,ioos:station:NOAA.NERRS:marscwq:1,2014-06-06T16:30:00Z,27.8383,-97.0503,5.39,31.3,1111122 
NERRS,ioos:station:NOAA.NERRS:marscwq:1,2014-06-06T17:30:00Z,27.8383,-97.0503,5.39,31.4,1111122 
NERRS,ioos:station:NOAA.NERRS:marscwq:1,2014-06-06T19:30:00Z,27.8383,-97.0503,5.29,31.4,1111122 
NERRS,ioos:station:NOAA.NERRS:marscwq:1,2014-06-06T20:30:00Z,27.8383,-97.0503,5.23,31.6,1111122 
NERRS,ioos:station:NOAA.NERRS:marscwq:1,2014-06-06T21:30:00Z,27.8383,-97.0503,5.2,31.6,1111122 
NERRS,ioos:station:NOAA.NERRS:marscwq:1,2014-06-06T22:30:00Z,27.8383,-97.0503,5.21,32.0,1111122 
NERRS,ioos:station:NOAA.NERRS:marscwq:1,2014-06-06T23:30:00Z,27.8383,-97.0503,5.17,32.2,1111122 
NERRS,ioos:station:NOAA.NERRS:marscwq:1,2014-06-07T00:30:00Z,27.8383,-97.0503,5.21,32.4,1111122 
NERRS,ioos:station:NOAA.NERRS:marscwq:1,2014-06-07T01:30:00Z,27.8383,-97.0503,5.18,32.4,1111122 
NERRS,ioos:station:NOAA.NERRS:marscwq:1,2014-06-07T02:30:00Z,27.8383,-97.0503,5.26,32.9,1111122 
NERRS,ioos:station:NOAA.NERRS:marscwq:1,2014-06-07T03:30:00Z,27.8383,-97.0503,5.26,33.2,1111122 
NERRS,ioos:station:NOAA.NERRS:marscwq:1,2014-06-07T05:30:00Z,27.8383,-97.0503,5.25,32.9,1111122 
NERRS,ioos:station:NOAA.NERRS:marscwq:1,2014-06-07T06:30:00Z,27.8383,-97.0503,5.28,32.8,1111122 
NERRS,ioos:station:NOAA.NERRS:marscwq:1,2014-06-07T08:30:00Z,27.8383,-97.0503,5.28,32.6,1111122 
NERRS,ioos:station:NOAA.NERRS:marscwq:1,2014-06-07T09:30:00Z,27.8383,-97.0503,5.32,32.2,1111122 
NERRS,ioos:station:NOAA.NERRS:marscwq:1,2014-06-07T12:30:00Z,27.8383,-97.0503,5.3,32.7,1111122 
NERRS,ioos:station:NOAA.NERRS:marscwq:1,2014-06-07T13:30:00Z,27.8383,-97.0503,5.33,32.3,1111122 
NERRS,ioos:station:NOAA.NERRS:marscwq:1,2014-06-07T14:30:00Z,27.8383,-97.0503,5.33,32.5,1111122 
NERRS,ioos:station:NOAA.NERRS:marscwq:1,2014-06-07T15:30:00Z,27.8383,-97.0503,5.35,32.0,1111122 
NERRS,ioos:station:NOAA.NERRS:marscwq:1,2014-06-07T16:30:00Z,27.8383,-97.0503,5.36,32.0,1111122 
NERRS,ioos:station:NOAA.NERRS:marscwq:1,2014-06-07T18:30:00Z,27.8383,-97.0503,5.32,32.1,1111122 
NERRS,ioos:station:NOAA.NERRS:marscwq:1,2014-06-07T19:30:00Z,27.8383,-97.0503,5.26,32.2,1111122 
NERRS,ioos:station:NOAA.NERRS:marscwq:1,2014-06-07T21:30:00Z,27.8383,-97.0503,5.12,32.3,1111122 
NERRS,ioos:station:NOAA.NERRS:marscwq:1,2014-06-07T22:30:00Z,27.8383,-97.0503,5.13,32.7,1111122 
NERRS,ioos:station:NOAA.NERRS:marscwq:1,2014-06-07T23:30:00Z,27.8383,-97.0503,5.14,32.9,1111122 
NERRS,ioos:station:NOAA.NERRS:marscwq:1,2014-06-08T00:30:00Z,27.8383,-97.0503,5.13,33.0,1111122 
NERRS,ioos:station:NOAA.NERRS:marscwq:1,2014-06-08T02:30:00Z,27.8383,-97.0503,5.2,33.8,1111122 
NERRS,ioos:station:NOAA.NERRS:marscwq:1,2014-06-08T03:30:00Z,27.8383,-97.0503,5.26,34.5,1111122 
NERRS,ioos:station:NOAA.NERRS:marscwq:1,2014-06-08T04:30:00Z,27.8383,-97.0503,5.29,33.7,1111122 
NERRS,ioos:station:NOAA.NERRS:marscwq:1,2014-06-08T05:30:00Z,27.8383,-97.0503,5.3,33.3,1111122 
NERRS,ioos:station:NOAA.NERRS:marscwq:1,2014-06-08T07:00:00Z,27.8383,-97.0503,5.31,32.8,1111122 
NERRS,ioos:station:NOAA.NERRS:marscwq:1,2014-06-08T08:30:00Z,27.8383,-97.0503,5.32,33.0,1111122 
NERRS,ioos:station:NOAA.NERRS:marscwq:1,2014-06-08T11:30:00Z,27.8383,-97.0503,5.33,33.1,1111122 
NERRS,ioos:station:NOAA.NERRS:marscwq:1,2014-06-08T12:30:00Z,27.8383,-97.0503,5.32,33.1,1111122 
NERRS,ioos:station:NOAA.NERRS:marscwq:1,2014-06-08T13:30:00Z,27.8383,-97.0503,5.35,33.1,1111122 
NERRS,ioos:station:NOAA.NERRS:marscwq:1,2014-06-08T14:30:00Z,27.8383,-97.0503,5.36,33.2,1111122 
NERRS,ioos:station:NOAA.NERRS:marscwq:1,2014-06-08T15:30:00Z,27.8383,-97.0503,5.33,33.2,1111122 
NERRS,ioos:station:NOAA.NERRS:marscwq:1,2014-06-08T16:30:00Z,27.8383,-97.0503,5.33,33.2,1111122 
NERRS,ioos:station:NOAA.NERRS:marscwq:1,2014-06-08T17:30:00Z,27.8383,-97.0503,5.32,33.2,1111122 
NERRS,ioos:station:NOAA.NERRS:marscwq:1,2014-06-08T18:30:00Z,27.8383,-97.0503,5.25,33.2,1111122 
NERRS,ioos:station:NOAA.NERRS:marscwq:1,2014-06-08T19:30:00Z,27.8383,-97.0503,5.19,33.3,1111122 
NERRS,ioos:station:NOAA.NERRS:marscwq:1,2014-06-08T20:30:00Z,27.8383,-97.0503,5.1,33.3,1111122 
NERRS,ioos:station:NOAA.NERRS:marscwq:1,2014-06-08T21:30:00Z,27.8383,-97.0503,5.07,33.2,1111122 
NERRS,ioos:station:NOAA.NERRS:marscwq:1,2014-06-08T22:30:00Z,27.8383,-97.0503,5.05,33.6,1111122 
NERRS,ioos:station:NOAA.NERRS:marscwq:1,2014-06-09T00:30:00Z,27.8383,-97.0503,5.01,33.9,1111122 
NERRS,ioos:station:NOAA.NERRS:marscwq:1,2014-06-09T01:30:00Z,27.8383,-97.0503,5.04,33.9,1111122 
NERRS,ioos:station:NOAA.NERRS:marscwq:1,2014-06-09T02:30:00Z,27.8383,-97.0503,5.12,33.9,1111122 
NERRS,ioos:station:NOAA.NERRS:marscwq:1,2014-06-09T03:30:00Z,27.8383,-97.0503,5.18,34.7,1111122 
NERRS,ioos:station:NOAA.NERRS:marscwq:1,2014-06-09T05:30:00Z,27.8383,-97.0503,5.24,34.8,1111122 
NERRS,ioos:station:NOAA.NERRS:marscwq:1,2014-06-09T09:30:00Z,27.8383,-97.0503,5.29,33.5,1111122 
NERRS,ioos:station:NOAA.NERRS:marscwq:1,2014-06-09T10:30:00Z,27.8383,-97.0503,5.31,33.5,1111122 
NERRS,ioos:station:NOAA.NERRS:marscwq:1,2014-06-09T11:30:00Z,27.8383,-97.0503,5.27,33.5,1111122 
NERRS,ioos:station:NOAA.NERRS:marscwq:1,2014-06-09T12:30:00Z,27.8383,-97.0503,5.31,33.5,1111122 
NERRS,ioos:station:NOAA.NERRS:marscwq:1,2014-06-09T14:30:00Z,27.8383,-97.0503,5.29,33.5,1111122 
NERRS,ioos:station:NOAA.NERRS:marscwq:1,2014-06-09T15:30:00Z,27.8383,-97.0503,5.28,33.7,1111122 
NERRS,ioos:station:NOAA.NERRS:marscwq:1,2014-06-09T17:30:00Z,27.8383,-97.0503,5.24,33.7,1111122 
NERRS,ioos:station:NOAA.NERRS:marscwq:1,2014-06-09T18:30:00Z,27.8383,-97.0503,5.2,33.7,1111122 
NERRS,ioos:station:NOAA.NERRS:marscwq:1,2014-06-09T19:30:00Z,27.8383,-97.0503,5.15,33.7,1111122 
NERRS,ioos:station:NOAA.NERRS:marscwq:1,2014-06-09T20:30:00Z,27.8383,-97.0503,5.11,33.6,1111122 
NERRS,ioos:station:NOAA.NERRS:marscwq:1,2014-06-09T21:30:00Z,27.8383,-97.0503,5.04,33.6,1111122 
NERRS,ioos:station:NOAA.NERRS:marscwq:1,2014-06-09T22:30:00Z,27.8383,-97.0503,4.99,34.1,1111122 
NERRS,ioos:station:NOAA.NERRS:marscwq:1,2014-06-09T23:30:00Z,27.8383,-97.0503,4.92,34.4,1111122 
NERRS,ioos:station:NOAA.NERRS:marscwq:1,2014-06-10T01:30:00Z,27.8383,-97.0503,5.0,34.4,1111122 
NERRS,ioos:station:NOAA.NERRS:marscwq:1,2014-06-10T03:30:00Z,27.8383,-97.0503,5.11,35.0,1111122 
NERRS,ioos:station:NOAA.NERRS:marscwq:1,2014-06-10T04:30:00Z,27.8383,-97.0503,5.17,35.5,1111122 
NERRS,ioos:station:NOAA.NERRS:marscwq:1,2014-06-10T07:30:00Z,27.8383,-97.0503,5.3,34.4,1111122 
NERRS,ioos:station:NOAA.NERRS:marscwq:1,2014-06-10T08:30:00Z,27.8383,-97.0503,5.36,33.9,1111122 
NERRS,ioos:station:NOAA.NERRS:marscwq:1,2014-06-10T10:30:00Z,27.8383,-97.0503,5.31,33.7,1111122 
NERRS,ioos:station:NOAA.NERRS:marscwq:1,2014-06-10T11:30:00Z,27.8383,-97.0503,5.34,33.7,1111122 
NERRS,ioos:station:NOAA.NERRS:marscwq:1,2014-06-10T12:30:00Z,27.8383,-97.0503,5.3,33.7,1111122 
NERRS,ioos:station:NOAA.NERRS:marscwq:1,2014-06-10T13:30:00Z,27.8383,-97.0503,5.28,33.6,1111122 
NERRS,ioos:station:NOAA.NERRS:marscwq:1,2014-06-10T15:30:00Z,27.8383,-97.0503,5.29,33.6,1111122 
NERRS,ioos:station:NOAA.NERRS:marscwq:1,2014-06-10T16:30:00Z,27.8383,-97.0503,5.29,33.6,1111122 
NERRS,ioos:station:NOAA.NERRS:marscwq:1,2014-06-10T17:30:00Z,27.8383,-97.0503,5.29,33.6,1111122 
NERRS,ioos:station:NOAA.NERRS:marscwq:1,2014-06-10T18:30:00Z,27.8383,-97.0503,5.23,33.6,1111122 
NERRS,ioos:station:NOAA.NERRS:marscwq:1,2014-06-10T20:30:00Z,27.8383,-97.0503,5.06,33.6,1111122 
NERRS,ioos:station:NOAA.NERRS:marscwq:1,2014-06-10T21:30:00Z,27.8383,-97.0503,5.01,33.6,1111122 
NERRS,ioos:station:NOAA.NERRS:marscwq:1,2014-06-10T23:30:00Z,27.8383,-97.0503,4.81,34.6,1111122 
NERRS,ioos:station:NOAA.NERRS:marscwq:1,2014-06-11T00:30:00Z,27.8383,-97.0503,4.77,34.9,1111122 
NERRS,ioos:station:NOAA.NERRS:marscwq:1,2014-06-11T01:30:00Z,27.8383,-97.0503,4.81,35.1,1111122 
NERRS,ioos:station:NOAA.NERRS:marscwq:1,2014-06-11T02:30:00Z,27.8383,-97.0503,4.88,35.0,1111122 
NERRS,ioos:station:NOAA.NERRS:marscwq:1,2014-06-11T04:30:00Z,27.8383,-97.0503,5.05,34.5,1111122 
NERRS,ioos:station:NOAA.NERRS:marscwq:1,2014-06-11T05:30:00Z,27.8383,-97.0503,5.13,35.2,1111122 
NERRS,ioos:station:NOAA.NERRS:marscwq:1,2014-06-11T07:00:00Z,27.8383,-97.0503,5.24,34.4,1111122 
NERRS,ioos:station:NOAA.NERRS:marscwq:1,2014-06-11T07:30:00Z,27.8383,-97.0503,5.24,35.3,1111122 
NERRS,ioos:station:NOAA.NERRS:marscwq:1,2014-06-11T08:30:00Z,27.8383,-97.0503,5.26,34.4,1111122 
NERRS,ioos:station:NOAA.NERRS:marscwq:1,2014-06-11T09:30:00Z,27.8383,-97.0503,5.24,34.0,1111122 
NERRS,ioos:station:NOAA.NERRS:marscwq:1,2014-06-11T10:30:00Z,27.8383,-97.0503,5.26,33.8,1111122 
NERRS,ioos:station:NOAA.NERRS:marscwq:1,2014-06-11T11:30:00Z,27.8383,-97.0503,5.26,33.5,1111122 
NERRS,ioos:station:NOAA.NERRS:marscwq:1,2014-06-11T13:30:00Z,27.8383,-97.0503,5.26,33.4,1111122 
NERRS,ioos:station:NOAA.NERRS:marscwq:1,2014-06-11T16:30:00Z,27.8383,-97.0503,5.22,33.4,1111122 
NERRS,ioos:station:NOAA.NERRS:marscwq:1,2014-06-11T20:30:00Z,27.8383,-97.0503,5.04,33.4,1111122 
NERRS,ioos:station:NOAA.NERRS:marscwq:1,2014-06-11T21:30:00Z,27.8383,-97.0503,4.96,33.4,1111122 
NERRS,ioos:station:NOAA.NERRS:marscwq:1,2014-06-11T22:30:00Z,27.8383,-97.0503,4.91,33.4,1111122 
NERRS,ioos:station:NOAA.NERRS:marscwq:1,2014-06-11T23:30:00Z,27.8383,-97.0503,4.84,33.5,1111122 
NERRS,ioos:station:NOAA.NERRS:marscwq:1,2014-06-12T02:30:00Z,27.8383,-97.0503,4.8,34.7,1111122 
NERRS,ioos:station:NOAA.NERRS:marscwq:1,2014-06-12T04:30:00Z,27.8383,-97.0503,5.0,34.9,1111122 
NERRS,ioos:station:NOAA.NERRS:marscwq:1,2014-06-12T05:00:00Z,27.8383,-97.0503,5.05,34.9,1111122 
NERRS,ioos:station:NOAA.NERRS:marscwq:1,2014-06-12T07:00:00Z,27.8383,-97.0503,5.23,35.3,1111122 
NERRS,ioos:station:NOAA.NERRS:marscwq:1,2014-06-12T07:30:00Z,27.8383,-97.0503,5.21,35.1,1111122 
NERRS,ioos:station:NOAA.NERRS:marscwq:1,2014-06-12T09:30:00Z,27.8383,-97.0503,5.33,33.6,1111122 
NERRS,ioos:station:NOAA.NERRS:marscwq:1,2014-06-12T10:30:00Z,27.8383,-97.0503,5.29,33.5,1111122 
NERRS,ioos:station:NOAA.NERRS:marscwq:1,2014-06-12T11:30:00Z,27.8383,-97.0503,5.28,33.5,1111122 
NERRS,ioos:station:NOAA.NERRS:marscwq:1,2014-06-12T13:30:00Z,27.8383,-97.0503,5.33,33.5,1111122 
NERRS,ioos:station:NOAA.NERRS:marscwq:1,2014-06-12T15:30:00Z,27.8383,-97.0503,5.3,33.5,1111122 
NERRS,ioos:station:NOAA.NERRS:marscwq:1,2014-06-12T16:30:00Z,27.8383,-97.0503,5.26,33.5,1111122 
NERRS,ioos:station:NOAA.NERRS:marscwq:1,2014-06-12T18:30:00Z,27.8383,-97.0503,5.24,33.5,1111122 
NERRS,ioos:station:NOAA.NERRS:marscwq:1,2014-06-12T19:30:00Z,27.8383,-97.0503,5.24,33.6,1111122 
NERRS,ioos:station:NOAA.NERRS:marscwq:1,2014-06-12T22:30:00Z,27.8383,-97.0503,4.95,33.6,1111122 
NERRS,ioos:station:NOAA.NERRS:marscwq:1,2014-06-12T23:30:00Z,27.8383,-97.0503,4.86,33.5,1111122 
NERRS,ioos:station:NOAA.NERRS:marscwq:1,2014-06-13T00:30:00Z,27.8383,-97.0503,4.79,33.6,1111122 
NERRS,ioos:station:NOAA.NERRS:marscwq:1,2014-06-13T01:30:00Z,27.8383,-97.0503,4.78,33.9,1111122 
NERRS,ioos:station:NOAA.NERRS:marscwq:1,2014-06-13T02:30:00Z,27.8383,-97.0503,4.73,34.1,1111122 
NERRS,ioos:station:NOAA.NERRS:marscwq:1,2014-06-13T04:30:00Z,27.8383,-97.0503,4.91,34.4,1111122 
NERRS,ioos:station:NOAA.NERRS:marscwq:1,2014-06-13T06:00:00Z,27.8383,-97.0503,5.02,34.5,1111122 
NERRS,ioos:station:NOAA.NERRS:marscwq:1,2014-06-13T06:30:00Z,27.8383,-97.0503,5.1,34.9,1111122 
NERRS,ioos:station:NOAA.NERRS:marscwq:1,2014-06-13T07:30:00Z,27.8383,-97.0503,5.21,35.3,1111122 
NERRS,ioos:station:NOAA.NERRS:marscwq:1,2014-06-13T09:30:00Z,27.8383,-97.0503,5.34,34.7,1111122 
NERRS,ioos:station:NOAA.NERRS:marscwq:1,2014-06-13T10:30:00Z,27.8383,-97.0503,5.33,34.0,1111122 
NERRS,ioos:station:NOAA.NERRS:marscwq:1,2014-06-13T11:30:00Z,27.8383,-97.0503,5.32,33.9,1111122 
NERRS,ioos:station:NOAA.NERRS:marscwq:1,2014-06-13T12:30:00Z,27.8383,-97.0503,5.32,33.8,1111122 
NERRS,ioos:station:NOAA.NERRS:marscwq:1,2014-06-13T13:30:00Z,27.8383,-97.0503,5.37,34.1,1111122 
NERRS,ioos:station:NOAA.NERRS:marscwq:1,2014-06-13T14:30:00Z,27.8383,-97.0503,5.37,34.2,1111122 
NERRS,ioos:station:NOAA.NERRS:marscwq:1,2014-06-13T16:30:00Z,27.8383,-97.0503,5.28,34.1,1111122 
NERRS,ioos:station:NOAA.NERRS:marscwq:1,2014-06-13T17:30:00Z,27.8383,-97.0503,5.36,34.2,1111122 
NERRS,ioos:station:NOAA.NERRS:marscwq:1,2014-06-13T19:30:00Z,27.8383,-97.0503,5.31,34.2,1111122 
NERRS,ioos:station:NOAA.NERRS:marscwq:1,2014-06-13T20:30:00Z,27.8383,-97.0503,5.22,34.2,1111122 
NERRS,ioos:station:NOAA.NERRS:marscwq:1,2014-06-13T21:30:00Z,27.8383,-97.0503,5.22,34.2,1111122 
NERRS,ioos:station:NOAA.NERRS:marscwq:1,2014-06-13T22:30:00Z,27.8383,-97.0503,4.97,34.2,1111122 
NERRS,ioos:station:NOAA.NERRS:marscwq:1,2014-06-13T23:30:00Z,27.8383,-97.0503,4.96,34.2,1111122 
NERRS,ioos:station:NOAA.NERRS:marscwq:1,2014-06-14T00:30:00Z,27.8383,-97.0503,4.98,34.1,1111122 
NERRS,ioos:station:NOAA.NERRS:marscwq:1,2014-06-14T03:00:00Z,27.8383,-97.0503,4.73,34.2,1111122 
NERRS,ioos:station:NOAA.NERRS:marscwq:1,2014-06-14T06:30:00Z,27.8383,-97.0503,5.12,34.6,1111122 
NERRS,ioos:station:NOAA.NERRS:marscwq:1,2014-06-14T07:30:00Z,27.8383,-97.0503,5.18,34.8,1111122 
NERRS,ioos:station:NOAA.NERRS:marscwq:1,2014-06-14T08:30:00Z,27.8383,-97.0503,5.27,35.2,1111122 
NERRS,ioos:station:NOAA.NERRS:marscwq:1,2014-06-14T09:30:00Z,27.8383,-97.0503,5.24,35.0,1111122 
NERRS,ioos:station:NOAA.NERRS:marscwq:1,2014-06-14T12:30:00Z,27.8383,-97.0503,5.35,34.4,1111122 
NERRS,ioos:station:NOAA.NERRS:marscwq:1,2014-06-14T14:30:00Z,27.8383,-97.0503,5.36,34.4,1111122 
NERRS,ioos:station:NOAA.NERRS:marscwq:1,2014-06-14T15:30:00Z,27.8383,-97.0503,5.39,34.4,1111122 
NERRS,ioos:station:NOAA.NERRS:marscwq:1,2014-06-14T16:30:00Z,27.8383,-97.0503,5.37,34.5,1111122 
NERRS,ioos:station:NOAA.NERRS:marscwq:1,2014-06-14T17:30:00Z,27.8383,-97.0503,5.34,34.4,1111122 